Grinnell, IA

1:54 AM CDT on June 26, 2017 (GMT -0500)
Grinnell Regional

Weather History for KGGI - January, 2013

Change the Weather History Date:

Thursday, January 24, 2013

  Actual Average (KTNU) Record (KTNU)
Temperature  
Mean Temperature 12 °F -  
Max Temperature 22 °F 32 °F 61 °F (1981)
Min Temperature 3 °F 12 °F -16 °F (2008)
Degree Days  
Heating Degree Days 52    
Moisture  
Dew Point -2 °F    
Average Humidity 54    
Maximum Humidity 65    
Minimum Humidity 40    
Precipitation  
Precipitation 0.00 in - - ()
Sea Level Pressure  
Sea Level Pressure 30.45 in    
Wind  
Wind Speed 11 mph (East)    
Max Wind Speed 16 mph    
Max Gust Speed 21 mph    
Visibility 10 miles    
Events      
Averages and records for this station are not official NWS values.
T = Trace of Precipitation, MM = Missing Value Source: NWS Daily Summary

Daily Weather History Graph

Daily Weather History Graph

Search for Another Location

Airport or City:

Trip Planner

Search our weather history database for the weather conditions in past years. The results will help you decide how hot, cold, wet, or windy it might be!

Date:

Astronomy

Jan. 24, 2013 Rise Set
Actual Time 7:29 AM CST 5:16 PM CST
Civil Twilight 6:59 AM CST 5:46 PM CST
Nautical Twilight 6:26 AM CST 6:20 PM CST
Astronomical Twilight 5:53 AM CST 6:53 PM CST
Moon 3:18 PM CST (1/24) 5:28 AM CST (1/24)
Length of Visible Light 10h 46m
Length of Day
9h 46m
Waxing Gibbous, 94% of the Moon is Illuminated
Jan 24
Waxing Gibbous
Jan 26
Full
Feb 3
Last Quarter
Feb 10
New
Feb 17
First Quarter

Hourly Weather History & Observations

Time (CST) Temp. Windchill Dew Point Humidity Pressure Visibility Wind Dir Wind Speed Gust Speed Precip Events Conditions
12:15 AM 6.4 °F -9.8 °F -3.1 °F 65% 30.49 in 10.0 mi NNW 12.7 mph 19.6 mph N/A   Clear
12:35 AM 6.3 °F -10.0 °F -3.1 °F 65% 30.50 in 10.0 mi North 12.7 mph - N/A   Clear
12:55 AM 6.1 °F -9.5 °F -4.2 °F 63% 30.51 in 10.0 mi North 11.5 mph 17.3 mph N/A   Clear
1:15 AM 5.9 °F -11.2 °F -6.5 °F 57% 30.51 in 10.0 mi North 13.8 mph - N/A   Clear
1:35 AM 5.7 °F -8.2 °F -6.2 °F 58% 30.52 in 10.0 mi North 9.2 mph - N/A   Clear
1:55 AM 5.4 °F -11.8 °F -6.0 °F 60% 30.51 in 10.0 mi North 13.8 mph 18.4 mph N/A   Clear
2:15 AM 5.0 °F -10.0 °F -6.7 °F 59% 30.53 in 10.0 mi North 10.4 mph 16.1 mph N/A   Clear
2:35 AM 5.0 °F -8.1 °F -6.7 °F 59% 30.54 in 10.0 mi North 8.1 mph - N/A   Clear
2:55 AM 4.5 °F -8.7 °F -6.3 °F 61% 30.55 in 10.0 mi North 8.1 mph - N/A   Clear
3:15 AM 4.5 °F -8.7 °F -6.2 °F 62% 30.55 in 10.0 mi NNE 8.1 mph - N/A   Clear
3:35 AM 4.5 °F -8.7 °F -6.3 °F 61% 30.55 in 10.0 mi North 8.1 mph - N/A   Clear
3:55 AM 4.1 °F -11.1 °F -6.7 °F 61% 30.55 in 10.0 mi NNE 10.4 mph - N/A   Clear
4:15 AM 4.1 °F -12.0 °F -6.7 °F 61% 30.56 in 10.0 mi NNE 11.5 mph 17.3 mph N/A   Clear
4:35 AM 4.1 °F -13.4 °F -6.7 °F 61% 30.55 in 10.0 mi NNE 13.8 mph 17.3 mph N/A   Clear
4:55 AM 4.1 °F -12.0 °F -6.9 °F 60% 30.56 in 10.0 mi NNE 11.5 mph - N/A   Clear
5:15 AM 4.1 °F -9.2 °F -6.9 °F 60% 30.56 in 10.0 mi NNE 8.1 mph - N/A   Clear
5:35 AM 4.1 °F -11.1 °F -6.5 °F 61% 30.56 in 10.0 mi NE 10.4 mph - N/A   Clear
5:55 AM 4.1 °F -12.0 °F -6.7 °F 61% 30.55 in 10.0 mi NE 11.5 mph - N/A   Clear
6:15 AM 3.9 °F -10.4 °F -6.2 °F 63% 30.56 in 10.0 mi NE 9.2 mph - N/A   Clear
6:35 AM 3.9 °F -9.4 °F -5.8 °F 64% 30.58 in 10.0 mi NE 8.1 mph - N/A   Clear
6:55 AM 3.9 °F -9.4 °F -5.6 °F 65% 30.58 in 10.0 mi NE 8.1 mph - N/A   Clear
7:15 AM 4.1 °F -9.2 °F -5.3 °F 65% 30.58 in 10.0 mi NE 8.1 mph - N/A   Clear
7:35 AM 4.1 °F -11.1 °F -5.3 °F 65% 30.58 in 10.0 mi NE 10.4 mph - N/A   Clear
7:55 AM 4.5 °F -10.7 °F -5.6 °F 63% 30.59 in 10.0 mi NE 10.4 mph - N/A   Clear
8:15 AM 5.0 °F -10.0 °F -4.9 °F 64% 30.59 in 10.0 mi ENE 10.4 mph - N/A   Clear
8:35 AM 5.7 °F -9.1 °F -4.5 °F 63% 30.60 in 10.0 mi ENE 10.4 mph - N/A   Clear
8:55 AM 6.4 °F -8.2 °F -4.2 °F 62% 30.59 in 10.0 mi ENE 10.4 mph - N/A   Clear
9:15 AM 7.3 °F -8.6 °F -4.0 °F 60% 30.58 in 10.0 mi ENE 12.7 mph - N/A   Clear
9:35 AM 7.7 °F -7.4 °F -4.2 °F 58% 30.59 in 10.0 mi East 11.5 mph - N/A   Clear
9:55 AM 8.6 °F -5.5 °F -4.2 °F 56% 30.59 in 10.0 mi East 10.4 mph - N/A   Clear
10:15 AM 9.5 °F -5.2 °F -3.5 °F 56% 30.58 in 10.0 mi East 11.5 mph 16.1 mph N/A   Clear
10:35 AM 9.9 °F -4.0 °F -3.8 °F 54% 30.57 in 10.0 mi East 10.4 mph - N/A   Clear
10:55 AM 10.8 °F -2.8 °F -3.8 °F 52% 30.57 in 10.0 mi ESE 10.4 mph - N/A   Clear
11:15 AM 10.8 °F -2.8 °F -4.4 °F 51% 30.57 in 10.0 mi ESE 10.4 mph - N/A   Clear
11:35 AM 11.5 °F -1.1 °F -3.8 °F 50% 30.57 in 10.0 mi ESE 9.2 mph - N/A   Clear
11:55 AM 12.7 °F -0.4 °F -3.5 °F 48% 30.54 in 10.0 mi ESE 10.4 mph - N/A   Clear
12:15 PM 13.1 °F 1.8 °F -4.0 °F 47% 30.55 in 10.0 mi ESE 8.1 mph - N/A   Clear
12:35 PM 14.0 °F 1.2 °F -2.9 °F 47% 30.50 in 10.0 mi ESE 10.4 mph - N/A   Clear
12:55 PM 15.1 °F 2.5 °F -2.6 °F 46% 30.49 in 10.0 mi ESE 10.4 mph - N/A   Clear
1:15 PM 15.4 °F 2.3 °F -4.5 °F 41% 30.48 in 10.0 mi East 11.5 mph - N/A   Clear
1:35 PM 15.4 °F 3.0 °F -4.7 °F 41% 30.45 in 10.0 mi East 10.4 mph 17.3 mph N/A   Clear
1:55 PM 16.0 °F 3.6 °F -4.0 °F 41% 30.44 in 10.0 mi East 10.4 mph 18.4 mph N/A   Clear
2:15 PM 16.9 °F 2.3 °F -3.6 °F 40% 30.41 in 10.0 mi East 15.0 mph - N/A   Clear
2:35 PM 17.2 °F 3.3 °F -2.9 °F 41% 30.40 in 10.0 mi ESE 13.8 mph 20.7 mph N/A   Clear
2:55 PM 17.2 °F 3.3 °F -2.6 °F 42% 30.41 in 10.0 mi SE 13.8 mph - N/A   Clear
3:15 PM 17.6 °F 2.7 °F -2.2 °F 42% 30.39 in 10.0 mi ESE 16.1 mph - N/A   Clear
3:35 PM 17.6 °F 4.3 °F -2.2 °F 42% 30.41 in 10.0 mi SE 12.7 mph - N/A   Clear
3:55 PM 17.6 °F 5.7 °F -2.2 °F 42% 30.39 in 10.0 mi SE 10.4 mph - N/A   Clear
4:15 PM 17.8 °F 5.9 °F -2.4 °F 41% 30.38 in 10.0 mi ESE 10.4 mph - N/A   Clear
4:35 PM 18.0 °F 6.1 °F -1.7 °F 42% 30.36 in 10.0 mi ESE 10.4 mph - N/A   Clear
4:55 PM 18.1 °F 5.0 °F -0.9 °F 43% 30.36 in 10.0 mi ESE 12.7 mph 16.1 mph N/A   Clear
5:15 PM 18.3 °F 7.3 °F -0.4 °F 44% 30.36 in 10.0 mi ESE 9.2 mph - N/A   Clear
5:35 PM 18.3 °F 5.9 °F 0.3 °F 45% 30.34 in 10.0 mi ESE 11.5 mph - N/A   Clear
5:55 PM 18.5 °F 6.1 °F 1.2 °F 47% 30.32 in 10.0 mi ESE 11.5 mph - N/A   Clear
6:15 PM 18.5 °F 6.8 °F 2.1 °F 49% 30.32 in 10.0 mi ESE 10.4 mph - N/A   Clear
6:35 PM 18.5 °F 6.1 °F 2.5 °F 50% 30.31 in 10.0 mi ESE 11.5 mph - N/A   Clear
6:55 PM 18.5 °F 6.1 °F 2.7 °F 50% 30.30 in 10.0 mi ESE 11.5 mph - N/A   Clear
7:15 PM 18.5 °F 6.8 °F 3.9 °F 53% 30.28 in 10.0 mi ESE 10.4 mph - N/A   Clear
7:35 PM 18.7 °F 7.8 °F 4.3 °F 54% 30.27 in 10.0 mi ESE 9.2 mph - N/A   Clear
7:55 PM 19.2 °F 8.4 °F 4.3 °F 52% 30.27 in 10.0 mi ESE 9.2 mph - N/A   Clear
8:15 PM 19.8 °F 9.9 °F 4.6 °F 52% 30.29 in 10.0 mi ESE 8.1 mph - N/A   Clear
8:35 PM 20.1 °F 10.3 °F 5.0 °F 52% 30.28 in 10.0 mi ESE 8.1 mph - N/A   Scattered Clouds
8:55 PM 20.3 °F 10.6 °F 5.7 °F 53% 30.28 in 10.0 mi East 8.1 mph - N/A   Mostly Cloudy
9:15 PM 20.3 °F 9.0 °F 5.7 °F 53% 30.26 in 10.0 mi ESE 10.4 mph - N/A   Overcast
9:35 PM 20.7 °F 8.2 °F 6.3 °F 54% 30.24 in 10.0 mi ESE 12.7 mph - N/A   Overcast
9:55 PM 21.0 °F 8.6 °F 6.6 °F 54% 30.24 in 10.0 mi SE 12.7 mph - N/A   Overcast
10:15 PM 21.2 °F 7.8 °F 7.0 °F 54% 30.24 in 10.0 mi SE 15.0 mph - N/A   Overcast
10:35 PM 21.6 °F 9.3 °F 7.3 °F 54% 30.22 in 10.0 mi SE 12.7 mph 19.6 mph N/A   Overcast
10:55 PM 21.7 °F 9.0 °F 7.7 °F 55% 30.22 in 10.0 mi SSE 13.8 mph - N/A   Overcast
11:15 PM 21.9 °F 11.0 °F 8.1 °F 55% 30.23 in 10.0 mi SSE 10.4 mph - N/A   Overcast
11:35 PM 22.1 °F 11.3 °F 8.4 °F 56% 30.23 in 10.0 mi SSE 10.4 mph - N/A   Overcast
11:55 PM 22.1 °F 10.6 °F 9.0 °F 57% 30.21 in 10.0 mi SSE 11.5 mph - N/A   Overcast